Location: Boitzum
(52.1496°N, 9.6943°E)
Time: 20:31:24
(UTC+00:00)

Cosmos 2154 Rocket - Pass Details

Date: 13 January 2026
Orbit: 965 x 997 km, 82.9° (Epoch: 16 February)

Event Time Altitude Azimuth Distance (km) Brightness Sun altitude
Rises 05:27:17 0° 189° (S) 3,698 7.1 -17.2°
Reaches altitude 10° 05:29:48 10° 190° (S) 2,750 6.4 -16.8°
Maximum altitude 05:36:07 87° 279° (W) 997 4.0 -15.9°
Drops below altitude 10° 05:42:27 10° 10° (N) 2,747 6.3 -14.9°
Sets 05:44:58 0° 11° (N) 3,694 7.0 -14.6°
